SCP
0 0 0 0 0 0 0 0 0 0 0 0 -0 -0 -0 -0 -0 -0 -0 -0 -0 -0 -0 0 0 0 0 0 0 0 -0 -0 0 0 -0 0 0 0 0 0 0 0 0 0 0 0 0
0 0 0 0 0 0 0 0 0 0 0 0 -0 -0 -0 -0 -0 -0 -0 -0 -0 -0 -0 0 0 -0 0 0 -0 0 0 0 0 0 0 0 0 0 0 0 0 0 0 0 0 0 0
0 0 0 0 0 0 0 0 0 0 0 0 -0 -0 -0 -0 -0 -0 -0 -0 0 -0 0 0 -0 -0 0 0 0 0 0 0 0 0 0 0 0 0 0 0 0 0 0 0 0 0 0
0 0 0 0 0 0 0 0 0 0 0 0 -0 -0 -0 -0 -0 -0 -0 -0 0 -0 -0 -0 -0 -0 -0 -0 -0 0 0 -0 0 0 0 0 0 0 0 0 0 -0 0 0 0 0 0
0 0 0 0 0 0 0 0 0 0 -0 -0 -0 -0 -0 -0 -0 -0 -0 -0 -0 -0 0 0 0 0 -0 -0 0 0 0 0 0 0 0 0 0 0 0 0 -0 0 0 0 0 0 -0
0 0 0 0 0 0 0 0 0 0 -0 -0 -0 -0 -0 -0 -0 -0 -0 -0 0 0 0 -0 0 0 0 0 -0 -0 0 0 0 0 0 0 0 0 0 0 0 0 0 0 0 0 -0
0 0 0 0 0 0 0 0 0 0 0 -0 -0 -0 -0 -0 -0 0 0 -0 0 0 0 0 0 0 0 -0 -0 -0 -0 0 -0 0 0 0 0 0 0 0 0 0 0 0 0 -0 -0
0 0 0 0 0 0 0 0 0 0 0 -0 -0 -0 -0 -0 0 0 0 0 -0 0 0 0 0 -0 0 -0 0 0 -0 -0 -0 0 -0 0 0 0 0 0 0 0 0 0 0 -0 0
0 0 0 0 0 0 0 0 0 0 0 0 -0 0 -0 -0 -0 0 0 0 0 0 0 -0 -0 -0 -0 0 0 0 -0 -0 -0 0 0 0 0 0 0 -0 -0 -0 0 0 -0 -0 0
0 0 0 0 0 0 0 0 0 0 0 0 0 0 0 -0 0 0 0 0 0 0 0 -0 -0 -0 -0 -0 -0 -0 -0 0 -0 0 0 0 0 0 0 0 0 0 -0 -0 0 0 0
0 0 0 0 0 0 0 0 0 0 0 0 0 0 0 0 0 0 0 0 0 0 0 0 -0 -0 -0 -0 -0 -0 0 -0 0 -0 0 0 0 0 0 0 0 -0 0 0 0 0 0
0 0 0 0 0 0 0 0 0 0 0 0 0 0 0 0 0 0 0 0 0 0 0 0 -0 -0 -0 -0 -0 -0 0 -0 0 -0 -0 0 0 0 0 0 0 0 0 0 0 0 0
0 0 0 0 0 0 0 0 0 0 0 0 0 0 0 0 0 0 0 0 0 0 0 0 -0 0 -0 -0 -0 -0 0 -0 -0 -0 0 -0 0 -0 0 0 0 0 0 0 0 0 0
0 0 0 0 0 0 0 0 0 0 0 0 -0 0 0 0 0 0 0 0 0 0 0 0 -0 0 0 0 0 0 0 0 -0 -0 0 0 -0 -0 0 0 0 0 0 0 -0 0 -0
0 0 0 0 0 0 0 0 0 0 0 0 0 0 0 0 0 0 0 0 0 0 0 0 0 0 0 0 0 0 0 0 0 -0 -0 0 -0 -0 0 -0 0 0 0 0 0 0 0
0 0 0 0 0 0 0 0 0 0 0 0 0 0 0 0 0 0 0 0 0 0 0 0 0 0 0 0 0 0 0 0 0 0 0 0 0 -0 -0 0 0 0 0 0 0 0 0
0 0 0 0 0 0 0 0 0 0 0 0 0 0 0 0 0 0 0 0 0 0 0 0 0 0 0 0 0 0 0 0 0 0 0 0 0 -0 0 0 0 0 0 0 0 0 0
0 0 0 0 0 0 0 0 0 0 0 0 0 0 0 0 0 0 0 0 0 0 0 0 0 0 0 0 0 0 0 0 0 0 0 0 0 0 0 0 0 0 0 0 0 0 0
0 0 0 0 0 0 0 0 0 0 0 0 0 0 0 0 0 0 0 0 0 0 0 0 0 0 0 0 0 0 0 0 0 0 0 0 0 0 0 0 0 0 0 0 0 0 0
0 0 0 0 0 0 0 0 0 0 0 0 0 0 0 0 0 0 0 0 0 0 0 0 0 0 0 0 0 0 0 0 0 0 0 0 0 0 0 0 0 0 0 0 0 0 0
0 0 0 0 0 0 0 0 0 0 0 0 0 0 0 0 0 0 0 0 0 0 0 0 0 0 0 0 0 0 0 0 0 0 0 0 0 0 0 0 0 0 0 0 0 0 0
0 0 0 0 0 0 0 0 0 0 0 0 0 0 0 0 0 0 0 0 0 0 0 0 0 0 0 0 0 0 0 0 0 0 0 0 0 0 0 0 0 0 0 0 0 0 0
0 0 0 0 0 0 0 0 0 0 0 0 0 0 0 0 0 0 0 0 0 0 0 0 0 0 0 0 0 0 0 0 0 0 0 0 0 0 0 0 0 0 0 0 0 0 0
0 0 0 0 0 0 0 0 0 0 0 0 0 0 0 0 0 0 0 0 0 0 0 0 0 0 0 0 0 0 0 0 0 0 0 0 0 0 0 0 0 0 0 0 0 0 0
0 0 0 0 0 0 0 0 0 0 0 0 0 0 0 0 0 0 0 0 0 0 0 0 0 0 0 0 0 0 0 0 0 0 0 0 0 0 0 0 0 0 0 0 0 0 0
0 0 0 0 0 0 0 0 0 0 0 0 0 0 0 0 0 0 0 0 0 0 0 0 0 0 0 0 0 0 0 0 0 0 0 0 0 0 0 0 0 0 0 0 0 0 0
0 0 0 0 0 0 0 0 0 0 0 0 0 0 0 0 0 0 0 0 0 0 0 0 0 0 0 0 0 0 0 0 0 0 0 0 0 0 0 0 0 0 0 0 0 0 0
0 0 0 0 0 0 0 0 0 0 0 0 0 0 0 0 0 0 0 0 0 0 0 0 0 0 0 0 0 0 0 0 0 0 0 0 0 0 0 0 0 0 0 0 0 0 0
0 0 0 0 0 0 0 0 0 0 0 0 0 0 0 0 0 0 0 0 0 0 0 0 0 0 0 0 0 0 0 0 0 0 0 0 0 0 0 0 0 0 0 0 0 0 0
Wind_Speed_500mb
3 5 6 7 9 11 13 16 18 20 23 25 26 29 28 28 28 28 29 24 20 22 20 16 14 12 8 5 5 7 11 7 5 9 15 11 7 4 2 5 3 9 15 30 47 49 43
4 4 6 9 10 13 14 17 19 22 23 25 28 30 30 29 28 29 25 20 21 21 14 12 11 7 4 4 3 6 16 2 8 9 14 3 8 16 9 6 7 8 16 25 26 42 24
4 5 6 9 11 14 16 18 20 22 24 26 28 30 32 30 29 28 21 20 22 17 7 9 7 6 9 9 8 1 9 2 1 6 1 10 18 13 11 8 10 12 11 16 7 11 8
4 6 9 10 12 14 17 20 22 23 25 27 29 30 32 30 27 23 19 17 19 14 7 6 7 8 8 4 14 7 4 9 4 4 10 13 13 14 5 13 15 10 9 10 12 8 7
5 6 7 10 12 16 18 21 23 26 27 27 30 31 31 29 23 19 16 19 14 10 12 10 7 9 6 5 11 6 13 7 10 13 13 17 18 4 4 7 11 14 5 6 23 9 8
5 7 9 11 14 17 19 21 24 26 28 28 31 29 29 26 18 11 19 13 12 10 11 12 10 8 2 12 4 6 11 9 15 12 9 4 3 7 8 9 6 3 7 10 12 13 8
6 8 10 12 14 17 19 22 25 26 29 30 30 29 26 23 13 8 20 7 11 4 30 20 23 20 23 2 8 9 13 10 12 6 5 8 9 9 14 14 8 2 7 9 12 16 6
8 9 10 12 14 17 20 22 25 27 29 30 31 29 24 18 7 8 15 12 14 15 17 32 26 33 23 14 8 13 16 9 5 3 4 12 8 19 12 11 11 9 6 17 10 8 7
11 10 12 14 15 18 20 23 25 27 29 30 30 27 21 12 3 5 9 11 6 16 6 18 15 14 11 18 15 17 20 9 4 4 7 8 21 12 12 9 4 8 9 8 8 6 9
14 12 14 15 17 19 22 25 26 28 30 30 30 26 20 6 2 7 12 7 12 12 7 11 7 7 13 13 9 28 28 8 2 5 4 9 9 9 6 7 12 7 12 7 4 9 3
15 16 16 17 19 21 24 26 28 30 31 29 29 24 18 5 5 2 9 8 11 8 6 3 6 4 15 12 2 10 30 16 7 7 10 14 14 17 4 8 3 10 3 6 4 9 8
18 18 17 19 20 23 26 28 31 32 34 29 27 26 18 11 12 4 11 19 8 9 1 5 10 9 7 4 3 4 18 16 6 2 1 13 13 4 6 8 7 6 5 9 9 5 8
20 19 19 19 22 25 28 31 33 35 37 32 24 25 18 12 11 6 12 7 9 7 10 6 11 8 9 9 5 10 10 10 6 5 8 11 9 14 7 14 14 16 14 8 10 11 6
22 21 20 20 22 26 29 31 34 36 38 34 24 23 19 11 18 15 11 9 3 5 10 8 6 5 13 11 11 9 10 4 7 7 5 4 13 9 11 2 6 8 10 10 3 1 8
26 24 21 21 22 25 28 31 33 35 37 35 26 21 12 9 15 11 7 6 13 9 10 12 8 6 10 11 5 6 9 5 3 9 11 6 9 8 4 4 4 3 10 3 12 6 4
29 27 24 22 22 24 27 30 33 35 35 34 25 17 13 19 10 7 8 8 7 9 10 6 6 7 5 10 11 6 7 4 4 7 7 7 4 6 8 3 15 12 2 6 8 2 2
33 30 27 24 22 23 26 29 33 35 34 27 17 4 16 20 12 2 6 11 10 21 13 5 3 4 4 6 3 6 5 7 8 7 15 6 6 12 8 10 5 10 7 13 8 6 9
35 32 29 26 23 22 25 27 32 35 33 23 8 3 14 24 2 3 5 8 7 14 36 2 7 5 3 5 8 5 5 1 8 1 6 4 8 3 9 12 7 7 6 7 9 4 1
38 35 31 27 24 21 22 24 27 32 33 33 19 6 4 19 3 4 10 8 7 7 6 1 4 5 3 4 4 6 5 6 9 6 8 9 4 6 17 12 12 11 7 7 8 6 8
43 38 34 30 25 22 20 21 22 26 29 25 9 5 5 8 10 6 4 5 10 19 4 6 6 8 8 6 12 4 7 15 9 12 15 8 6 12 12 10 5 4 1 3 7 4 5
47 41 37 31 26 23 20 18 18 19 21 15 10 2 4 3 8 6 2 5 6 11 13 10 9 7 7 4 5 3 6 7 14 17 8 8 9 9 10 11 6 5 11 6 12 12 10
47 45 41 34 29 24 21 16 14 15 15 7 4 4 3 3 10 7 10 10 11 11 10 7 8 6 5 10 6 11 3 0 3 9 6 8 1 3 6 3 10 8 15 20 16 14 14
48 46 42 37 32 26 22 16 11 9 8 3 2 3 3 7 6 5 2 6 5 14 8 9 18 8 7 9 7 2 4 3 2 2 4 5 7 5 8 5 9 7 16 11 5 8 7
47 46 43 38 34 29 23 17 13 7 3 2 3 2 2 5 2 3 6 7 9 13 4 4 10 8 9 5 3 5 9 15 15 19 16 9 9 7 7 3 13 12 5 11 13 4 8
47 47 44 40 36 31 26 21 16 10 5 1 2 2 3 1 2 5 11 6 14 11 9 4 5 9 14 6 7 10 9 9 10 13 11 13 11 6 7 9 11 11 11 4 6 1 7
48 48 45 41 38 34 30 25 22 16 11 7 6 3 1 6 6 4 5 4 1 5 7 4 7 6 3 8 6 10 9 8 9 9 15 11 8 8 6 7 11 11 4 8 4 6 3
52 49 46 42 38 36 32 28 24 19 13 9 8 7 6 4 7 2 4 4 1 2 2 5 5 1 2 5 5 7 8 6 7 7 6 5 5 12 5 10 12 12 16 13 7 12 18
54 50 48 44 40 36 33 29 25 19 12 10 11 15 15 9 15 15 9 6 4 4 6 0 5 4 6 5 7 7 7 8 3 7 7 11 9 8 5 5 13 23 10 4 7 12 15
55 48 46 42 39 36 33 29 26 20 13 11 16 20 19 17 11 13 23 26 28 16 6 6 2 1 4 6 1 3 4 1 6 6 2 5 9 7 12 9 8 11 5 8 9 13 13
Wind_Direction_500mb
354 8 345 348 344 341 345 343 343 341 342 342 338 332 336 336 334 333 329 327 323 327 326 327 313 305 308 308 280 31 21 3 29 132 155 174 202 171 192 225 266 203 259 272 281 291 286
345 346 342 349 349 344 346 344 346 342 343 341 340 334 339 338 337 335 336 334 332 330 317 329 322 315 302 281 65 68 15 15 27 129 182 201 326 324 282 230 177 254 259 282 296 288 274
321 330 343 348 346 341 346 345 345 344 343 344 343 339 338 339 341 339 344 344 343 338 320 325 330 320 270 232 124 102 15 92 68 42 336 310 320 328 306 298 310 288 324 336 276 302 280
304 325 336 341 338 338 344 346 346 343 344 347 343 341 338 341 344 342 345 354 3 8 2 333 337 321 248 203 232 264 202 183 186 295 319 334 302 297 238 304 349 6 55 17 284 317 311
305 314 323 331 339 339 343 345 344 343 346 345 342 342 342 341 346 348 351 335 341 2 10 344 335 335 272 235 255 241 209 215 307 282 268 294 302 296 346 61 2 8 303 325 324 309 252
305 315 323 331 341 340 342 344 344 344 345 343 339 343 343 337 350 5 353 339 349 319 313 317 298 336 349 336 214 208 197 280 284 310 298 281 1 42 37 73 220 281 343 322 286 296 10
303 312 320 333 339 340 340 346 347 345 342 340 339 344 343 338 359 23 27 15 354 323 315 275 280 271 301 289 195 162 183 226 255 318 25 3 38 266 239 203 187 293 272 256 260 273 296
281 301 318 328 337 338 341 346 345 345 343 341 340 344 342 338 19 60 56 48 18 334 309 297 270 261 258 248 314 233 206 217 65 346 12 7 263 255 230 219 223 218 256 287 288 275 141
284 299 313 321 330 334 338 341 343 344 344 342 339 340 338 342 62 71 80 7 50 346 326 291 249 251 242 219 221 211 185 203 180 322 249 170 254 332 208 253 198 224 194 257 227 311 20
281 293 305 314 323 331 334 336 341 339 340 341 339 338 337 343 187 129 40 56 354 334 51 277 241 248 210 202 233 222 208 177 101 220 271 229 287 294 308 254 165 2 193 215 88 72 127
276 287 300 309 320 329 327 330 334 333 333 335 339 334 333 305 216 154 328 314 327 298 64 154 196 199 176 186 195 205 206 202 217 211 75 267 296 329 355 256 199 219 98 17 64 103 99
270 282 297 308 315 316 323 327 327 329 326 327 338 330 323 295 228 258 280 295 283 42 317 321 159 166 124 258 355 123 178 207 299 142 252 255 286 306 290 314 344 22 57 54 58 69 52
263 276 289 298 309 315 319 324 325 324 324 324 332 318 303 271 194 247 289 275 37 124 349 256 204 159 177 204 247 167 172 187 195 68 353 334 324 322 353 12 6 58 51 4 14 14 228
260 268 281 295 305 312 318 324 325 326 323 319 318 308 297 258 214 234 282 47 137 259 263 298 296 125 174 156 232 187 134 187 239 94 93 96 333 13 348 25 246 8 117 140 143 208 266
256 263 273 285 297 307 316 323 327 330 326 318 318 313 294 183 177 208 177 84 204 214 290 338 335 98 357 351 293 112 139 187 178 166 167 149 287 323 67 13 60 43 41 166 105 359 60
254 259 266 278 292 305 316 323 329 333 331 325 325 324 165 155 155 153 83 221 238 231 304 30 71 19 59 358 22 103 138 321 126 52 146 184 344 360 298 116 29 96 171 40 11 123 299
250 255 263 273 286 300 313 322 329 335 336 331 325 312 166 180 189 192 154 228 269 296 289 92 139 69 61 21 27 53 358 347 8 44 72 96 102 293 7 38 350 350 23 51 116 120 159
246 251 257 266 278 294 308 320 331 338 345 338 342 38 145 183 164 29 171 201 303 297 314 295 107 96 83 49 33 81 109 35 352 53 59 32 123 263 260 302 287 54 97 104 110 238 132
236 243 250 259 269 283 301 314 330 342 353 354 335 291 128 184 161 294 302 293 267 310 239 80 91 71 3 84 106 16 87 23 43 66 143 176 46 14 348 358 14 52 20 113 104 70 214
235 234 243 250 261 271 288 306 324 339 347 345 340 14 22 103 79 131 22 303 320 346 54 29 124 84 69 49 28 121 10 9 31 68 47 76 120 155 204 210 172 257 340 96 116 119 228
233 233 235 242 251 263 275 292 312 331 344 348 4 47 20 342 359 356 291 323 348 358 1 10 48 46 121 125 64 52 355 2 42 11 62 92 179 190 232 221 229 235 285 244 195 209 188
231 232 233 233 239 249 263 278 298 322 334 337 357 9 12 9 316 356 10 27 8 335 19 343 109 3 76 147 184 186 220 322 232 358 69 0 256 177 300 287 218 234 263 263 236 236 232
231 229 230 230 231 236 247 261 274 303 330 220 140 53 350 357 353 71 7 305 322 333 32 70 147 102 71 155 151 198 237 225 209 156 125 95 120 92 250 12 308 295 236 237 279 267 237
229 229 228 227 226 228 233 240 245 253 310 129 98 119 95 274 39 86 351 330 326 323 252 90 108 106 153 132 275 257 263 265 253 247 194 142 124 139 218 7 261 249 224 225 225 88 348
227 224 223 223 222 223 225 225 225 225 227 217 69 78 125 197 298 327 347 316 323 354 32 96 48 113 147 119 53 17 340 354 255 234 233 203 138 189 187 203 304 307 290 139 183 264 311
225 222 219 218 219 218 219 217 216 215 218 211 218 247 135 114 230 279 301 337 238 331 20 27 87 136 151 83 82 160 219 234 289 325 40 82 93 139 137 202 229 245 168 291 102 251 219
222 221 217 214 215 216 216 214 211 211 214 226 231 226 222 238 242 208 174 215 305 93 142 300 319 301 76 99 113 165 233 225 243 240 230 68 58 198 160 234 283 274 300 310 210 239 155
218 215 215 213 213 212 213 213 210 209 218 228 235 225 226 231 256 249 222 220 226 213 148 320 62 295 47 98 138 213 187 238 259 238 200 191 165 195 116 199 275 346 344 266 213 120 157
214 212 211 210 210 208 208 208 209 213 228 237 218 224 229 246 264 272 256 260 245 245 247 208 190 176 183 89 221 105 223 274 175 241 323 231 187 190 173 217 289 339 4 47 128 177 169
Wind_Speed_850mb
3 5 6 7 9 11 13 16 18 20 23 25 26 29 28 28 28 28 29 24 20 22 20 16 14 12 8 5 5 7 11 7 5 9 15 11 7 4 2 5 3 9 15 30 47 49 43
4 4 6 9 10 13 14 17 19 22 23 25 28 30 30 29 28 29 25 20 21 21 14 12 11 7 4 4 3 6 16 2 8 9 14 3 8 16 9 6 7 8 16 25 26 42 24
4 5 6 9 11 14 16 18 20 22 24 26 28 30 32 30 29 28 21 20 22 17 7 9 7 6 9 9 8 1 9 2 1 6 1 10 18 13 11 8 10 12 11 16 7 11 8
4 6 9 10 12 14 17 20 22 23 25 27 29 30 32 30 27 23 19 17 19 14 7 6 7 8 8 4 14 7 4 9 4 4 10 13 13 14 5 13 15 10 9 10 12 8 7
5 6 7 10 12 16 18 21 23 26 27 27 30 31 31 29 23 19 16 19 14 10 12 10 7 9 6 5 11 6 13 7 10 13 13 17 18 4 4 7 11 14 5 6 23 9 8
5 7 9 11 14 17 19 21 24 26 28 28 31 29 29 26 18 11 19 13 12 10 11 12 10 8 2 12 4 6 11 9 15 12 9 4 3 7 8 9 6 3 7 10 12 13 8
6 8 10 12 14 17 19 22 25 26 29 30 30 29 26 23 13 8 20 7 11 4 30 20 23 20 23 2 8 9 13 10 12 6 5 8 9 9 14 14 8 2 7 9 12 16 6
8 9 10 12 14 17 20 22 25 27 29 30 31 29 24 18 7 8 15 12 14 15 17 32 26 33 23 14 8 13 16 9 5 3 4 12 8 19 12 11 11 9 6 17 10 8 7
11 10 12 14 15 18 20 23 25 27 29 30 30 27 21 12 3 5 9 11 6 16 6 18 15 14 11 18 15 17 20 9 4 4 7 8 21 12 12 9 4 8 9 8 8 6 9
14 12 14 15 17 19 22 25 26 28 30 30 30 26 20 6 2 7 12 7 12 12 7 11 7 7 13 13 9 28 28 8 2 5 4 9 9 9 6 7 12 7 12 7 4 9 3
15 16 16 17 19 21 24 26 28 30 31 29 29 24 18 5 5 2 9 8 11 8 6 3 6 4 15 12 2 10 30 16 7 7 10 14 14 17 4 8 3 10 3 6 4 9 8
18 18 17 19 20 23 26 28 31 32 34 29 27 26 18 11 12 4 11 19 8 9 1 5 10 9 7 4 3 4 18 16 6 2 1 13 13 4 6 8 7 6 5 9 9 5 8
20 19 19 19 22 25 28 31 33 35 37 32 24 25 18 12 11 6 12 7 9 7 10 6 11 8 9 9 5 10 10 10 6 5 8 11 9 14 7 14 14 16 14 8 10 11 6
22 21 20 20 22 26 29 31 34 36 38 34 24 23 19 11 18 15 11 9 3 5 10 8 6 5 13 11 11 9 10 4 7 7 5 4 13 9 11 2 6 8 10 10 3 1 8
26 24 21 21 22 25 28 31 33 35 37 35 26 21 12 9 15 11 7 6 13 9 10 12 8 6 10 11 5 6 9 5 3 9 11 6 9 8 4 4 4 3 10 3 12 6 4
29 27 24 22 22 24 27 30 33 35 35 34 25 17 13 19 10 7 8 8 7 9 10 6 6 7 5 10 11 6 7 4 4 7 7 7 4 6 8 3 15 12 2 6 8 2 2
33 30 27 24 22 23 26 29 33 35 34 27 17 4 16 20 12 2 6 11 10 21 13 5 3 4 4 6 3 6 5 7 8 7 15 6 6 12 8 10 5 10 7 13 8 6 9
35 32 29 26 23 22 25 27 32 35 33 23 8 3 14 24 2 3 5 8 7 14 36 2 7 5 3 5 8 5 5 1 8 1 6 4 8 3 9 12 7 7 6 7 9 4 1
38 35 31 27 24 21 22 24 27 32 33 33 19 6 4 19 3 4 10 8 7 7 6 1 4 5 3 4 4 6 5 6 9 6 8 9 4 6 17 12 12 11 7 7 8 6 8
43 38 34 30 25 22 20 21 22 26 29 25 9 5 5 8 10 6 4 5 10 19 4 6 6 8 8 6 12 4 7 15 9 12 15 8 6 12 12 10 5 4 1 3 7 4 5
47 41 37 31 26 23 20 18 18 19 21 15 10 2 4 3 8 6 2 5 6 11 13 10 9 7 7 4 5 3 6 7 14 17 8 8 9 9 10 11 6 5 11 6 12 12 10
47 45 41 34 29 24 21 16 14 15 15 7 4 4 3 3 10 7 10 10 11 11 10 7 8 6 5 10 6 11 3 0 3 9 6 8 1 3 6 3 10 8 15 20 16 14 14
48 46 42 37 32 26 22 16 11 9 8 3 2 3 3 7 6 5 2 6 5 14 8 9 18 8 7 9 7 2 4 3 2 2 4 5 7 5 8 5 9 7 16 11 5 8 7
47 46 43 38 34 29 23 17 13 7 3 2 3 2 2 5 2 3 6 7 9 13 4 4 10 8 9 5 3 5 9 15 15 19 16 9 9 7 7 3 13 12 5 11 13 4 8
47 47 44 40 36 31 26 21 16 10 5 1 2 2 3 1 2 5 11 6 14 11 9 4 5 9 14 6 7 10 9 9 10 13 11 13 11 6 7 9 11 11 11 4 6 1 7
48 48 45 41 38 34 30 25 22 16 11 7 6 3 1 6 6 4 5 4 1 5 7 4 7 6 3 8 6 10 9 8 9 9 15 11 8 8 6 7 11 11 4 8 4 6 3
52 49 46 42 38 36 32 28 24 19 13 9 8 7 6 4 7 2 4 4 1 2 2 5 5 1 2 5 5 7 8 6 7 7 6 5 5 12 5 10 12 12 16 13 7 12 18
54 50 48 44 40 36 33 29 25 19 12 10 11 15 15 9 15 15 9 6 4 4 6 0 5 4 6 5 7 7 7 8 3 7 7 11 9 8 5 5 13 23 10 4 7 12 15
55 48 46 42 39 36 33 29 26 20 13 11 16 20 19 17 11 13 23 26 28 16 6 6 2 1 4 6 1 3 4 1 6 6 2 5 9 7 12 9 8 11 5 8 9 13 13
Wind_Direction_850mb
354 8 345 348 344 341 345 343 343 341 342 342 338 332 336 336 334 333 329 327 323 327 326 327 313 305 308 308 280 31 21 3 29 132 155 174 202 171 192 225 266 203 259 272 281 291 286
345 346 342 349 349 344 346 344 346 342 343 341 340 334 339 338 337 335 336 334 332 330 317 329 322 315 302 281 65 68 15 15 27 129 182 201 326 324 282 230 177 254 259 282 296 288 274
321 330 343 348 346 341 346 345 345 344 343 344 343 339 338 339 341 339 344 344 343 338 320 325 330 320 270 232 124 102 15 92 68 42 336 310 320 328 306 298 310 288 324 336 276 302 280
304 325 336 341 338 338 344 346 346 343 344 347 343 341 338 341 344 342 345 354 3 8 2 333 337 321 248 203 232 264 202 183 186 295 319 334 302 297 238 304 349 6 55 17 284 317 311
305 314 323 331 339 339 343 345 344 343 346 345 342 342 342 341 346 348 351 335 341 2 10 344 335 335 272 235 255 241 209 215 307 282 268 294 302 296 346 61 2 8 303 325 324 309 252
305 315 323 331 341 340 342 344 344 344 345 343 339 343 343 337 350 5 353 339 349 319 313 317 298 336 349 336 214 208 197 280 284 310 298 281 1 42 37 73 220 281 343 322 286 296 10
303 312 320 333 339 340 340 346 347 345 342 340 339 344 343 338 359 23 27 15 354 323 315 275 280 271 301 289 195 162 183 226 255 318 25 3 38 266 239 203 187 293 272 256 260 273 296
281 301 318 328 337 338 341 346 345 345 343 341 340 344 342 338 19 60 56 48 18 334 309 297 270 261 258 248 314 233 206 217 65 346 12 7 263 255 230 219 223 218 256 287 288 275 141
284 299 313 321 330 334 338 341 343 344 344 342 339 340 338 342 62 71 80 7 50 346 326 291 249 251 242 219 221 211 185 203 180 322 249 170 254 332 208 253 198 224 194 257 227 311 20
281 293 305 314 323 331 334 336 341 339 340 341 339 338 337 343 187 129 40 56 354 334 51 277 241 248 210 202 233 222 208 177 101 220 271 229 287 294 308 254 165 2 193 215 88 72 127
276 287 300 309 320 329 327 330 334 333 333 335 339 334 333 305 216 154 328 314 327 298 64 154 196 199 176 186 195 205 206 202 217 211 75 267 296 329 355 256 199 219 98 17 64 103 99
270 282 297 308 315 316 323 327 327 329 326 327 338 330 323 295 228 258 280 295 283 42 317 321 159 166 124 258 355 123 178 207 299 142 252 255 286 306 290 314 344 22 57 54 58 69 52
263 276 289 298 309 315 319 324 325 324 324 324 332 318 303 271 194 247 289 275 37 124 349 256 204 159 177 204 247 167 172 187 195 68 353 334 324 322 353 12 6 58 51 4 14 14 228
260 268 281 295 305 312 318 324 325 326 323 319 318 308 297 258 214 234 282 47 137 259 263 298 296 125 174 156 232 187 134 187 239 94 93 96 333 13 348 25 246 8 117 140 143 208 266
256 263 273 285 297 307 316 323 327 330 326 318 318 313 294 183 177 208 177 84 204 214 290 338 335 98 357 351 293 112 139 187 178 166 167 149 287 323 67 13 60 43 41 166 105 359 60
254 259 266 278 292 305 316 323 329 333 331 325 325 324 165 155 155 153 83 221 238 231 304 30 71 19 59 358 22 103 138 321 126 52 146 184 344 360 298 116 29 96 171 40 11 123 299
250 255 263 273 286 300 313 322 329 335 336 331 325 312 166 180 189 192 154 228 269 296 289 92 139 69 61 21 27 53 358 347 8 44 72 96 102 293 7 38 350 350 23 51 116 120 159
246 251 257 266 278 294 308 320 331 338 345 338 342 38 145 183 164 29 171 201 303 297 314 295 107 96 83 49 33 81 109 35 352 53 59 32 123 263 260 302 287 54 97 104 110 238 132
236 243 250 259 269 283 301 314 330 342 353 354 335 291 128 184 161 294 302 293 267 310 239 80 91 71 3 84 106 16 87 23 43 66 143 176 46 14 348 358 14 52 20 113 104 70 214
235 234 243 250 261 271 288 306 324 339 347 345 340 14 22 103 79 131 22 303 320 346 54 29 124 84 69 49 28 121 10 9 31 68 47 76 120 155 204 210 172 257 340 96 116 119 228
233 233 235 242 251 263 275 292 312 331 344 348 4 47 20 342 359 356 291 323 348 358 1 10 48 46 121 125 64 52 355 2 42 11 62 92 179 190 232 221 229 235 285 244 195 209 188
231 232 233 233 239 249 263 278 298 322 334 337 357 9 12 9 316 356 10 27 8 335 19 343 109 3 76 147 184 186 220 322 232 358 69 0 256 177 300 287 218 234 263 263 236 236 232
231 229 230 230 231 236 247 261 274 303 330 220 140 53 350 357 353 71 7 305 322 333 32 70 147 102 71 155 151 198 237 225 209 156 125 95 120 92 250 12 308 295 236 237 279 267 237
229 229 228 227 226 228 233 240 245 253 310 129 98 119 95 274 39 86 351 330 326 323 252 90 108 106 153 132 275 257 263 265 253 247 194 142 124 139 218 7 261 249 224 225 225 88 348
227 224 223 223 222 223 225 225 225 225 227 217 69 78 125 197 298 327 347 316 323 354 32 96 48 113 147 119 53 17 340 354 255 234 233 203 138 189 187 203 304 307 290 139 183 264 311
225 222 219 218 219 218 219 217 216 215 218 211 218 247 135 114 230 279 301 337 238 331 20 27 87 136 151 83 82 160 219 234 289 325 40 82 93 139 137 202 229 245 168 291 102 251 219
222 221 217 214 215 216 216 214 211 211 214 226 231 226 222 238 242 208 174 215 305 93 142 300 319 301 76 99 113 165 233 225 243 240 230 68 58 198 160 234 283 274 300 310 210 239 155
218 215 215 213 213 212 213 213 210 209 218 228 235 225 226 231 256 249 222 220 226 213 148 320 62 295 47 98 138 213 187 238 259 238 200 191 165 195 116 199 275 346 344 266 213 120 157
214 212 211 210 210 208 208 208 209 213 228 237 218 224 229 246 264 272 256 260 245 245 247 208 190 176 183 89 221 105 223 274 175 241 323 231 187 190 173 217 289 339 4 47 128 177 169